Flag for Germany Weather past 2 weeks in Landshut, Bavaria, Germany

Now
45 °F

Quite cool.


Feels Like: 43 °F
Forecast: 36 / 53 °F
Wind: 3 mph from Southeast

Location: Erding Airport

Current Time: Oct 26, 2014 at 1:16:16 AM

Latest Report: Oct 26, 2014 at 12:20 AM


Visibility: 2 mi

Pressure: 30.27 "Hg

Humidity: 100%

Dew point: 45 °F

Location of LandshutLocation

Historic Weather in Landshut — Graph

°F

Landshut temperature yesterday

Maximum temperature yesterday: 46 °F (at 12:20 PM)
Minimum temperature yesterday: 34 °F (at 6:20 AM)
Average temperature yesterday: 41 °F

Past Weeks' High & Low Weather Summary

 TemperatureHumidityPressure
High73 °F (Oct 19, 3:20 PM)100% (Oct 10, 11:20 PM)30.27 "Hg (Oct 10, 11:20 PM)
Low34 °F (Oct 25, 6:20 AM)50% (Oct 19, 3:20 PM)29.65 "Hg (Oct 21, 8:20 PM)
Average53 °F90%30.01 "Hg
* Reported Oct 10 11:20 PM — Oct 25 11:20 PM, Landshut, Weather by CustomWeather, © 2014

Note: Actual official high and low records may vary slightly from our data, if they occured in-between our weather recording intervals... More about our weather records

Advertising

Landshut weather history for previous 24 hours

 ConditionsComfort  
Time TempWeatherWind HumidityBarometerVisibility
11:20 PM
Oct 25
45 °FQuite cool.3 mph100%30.24 "Hg2 mi
10:20 PM45 °FQuite cool.3 mph100%30.24 "Hg2 mi
9:20 PM45 °FQuite cool.3 mph100%30.24 "Hg2 mi
8:20 PM45 °FQuite cool.1 mph100%30.21 "Hg2 mi
7:20 PM45 °FQuite cool.3 mph100%30.21 "Hg2 mi
6:20 PM45 °FQuite cool.2 mph100%30.21 "Hg2 mi
5:20 PM45 °FQuite cool.2 mph100%30.18 "Hg2 mi
4:20 PM45 °FQuite cool.2 mph100%30.18 "Hg2 mi
3:20 PM45 °FQuite cool.3 mph93%30.18 "Hg2 mi
2:20 PM45 °FQuite cool.7 mph93%30.15 "Hg2 mi
1:20 PM46 °FCool.6 mph93%30.15 "Hg2 mi
12:20 PM46 °FCool.3 mph87%30.18 "Hg3 mi
11:20 AM45 °FQuite cool.3 mph93%30.15 "Hg3 mi
10:20 AM39 °FChilly.3 mph100%30.15 "Hg2 mi
9:20 AM36 °FChilly.3 mph100%30.15 "Hg2 mi
8:20 AM34 °FChilly.2 mph100%30.15 "Hg2 mi
7:20 AM34 °FChilly.2 mph100%30.12 "Hg0 mi
6:20 AM34 °FChilly.2 mph100%30.12 "Hg0 mi
5:20 AM36 °FChilly.1 mph100%30.12 "Hg0 mi
4:20 AM37 °FChilly.3 mph100%30.12 "Hg0 mi
3:20 AM39 °FChilly.5 mph100%30.12 "Hg0 mi
2:20 AM41 °FQuite cool.5 mph100%30.15 "Hg0 mi
1:20 AM39 °FChilly.3 mph100%30.15 "Hg0 mi
Weather by CustomWeather, © 2014

See weather overviewHow to use our weather pages